テイラー彗星

69P/Taylor (2019)

English version
Home page
Updated on May 6, 2019

---------------------------------------------------------------------

・ プロフィール

・ 写真集

・ 軌道要素

Epoch 2019 Mar. 18.0 TT = JDT 2458560.5
T 2019 Mar. 18.46744 TT                                 MPCW
q   2.2834971            (2000.0)            P               Q
n   0.12836980     Peri.  343.57408     +0.00788794     -0.93189933
a   3.8918923      Node   104.83002     +0.95447176     -0.10112574
e   0.4132682      Incl.   22.03216     +0.29819699     +0.34833494
P   7.68
From 326 observations 2004 Sept. 24-2019 Mar. 6, mean residual 0".8.
     Nongravitational parameters A1 = +1.33, A2 = +0.4488.

・ 光度変化

        m1 = 6.0 + 5 logΔ + 30 log r

---------------------------------------------------------------------

軌道要素はM.P.E.C. 2019-J22に掲載されたものです。
光度グラフはComet for Windowsで作成したものです。

---------------------------------------------------------------------

Copyright(C) Seiichi Yoshida (comet@aerith.net). All rights reserved.